Location: Kott?ru
(16.6209°N, 80.6208°E)
Time: 22:06:01
(UTC+00:00)

RS-15 - Visible Passes

Search period start: 30 May 2024 00:00
Search period end: 09 June 2024 00:00
Orbit: 1896 x 2149 km, 64.8° (Epoch: 30 May)

Date Brightness Start Highest point End Pass type
(mag) Time Alt. Az. Time Alt. Az. Time Alt. Az.
30 May 9.3 16:09:35 10° NNE 16:16:19 18° NE 16:16:58 18° ENE visible
30 May 8.6 18:18:24 10° NNW 18:24:42 42° NNW 18:24:42 42° NNW visible
31 May 9.6 15:36:52 10° NE 15:39:38 11° NE 15:42:03 10° ENE visible
31 May 8.4 17:42:25 10° NNW 17:49:47 50° N 17:49:47 50° N visible
01 Jun 8.4 17:06:40 10° NNW 17:14:54 48° NNE 17:14:54 48° NNE visible
01 Jun 9.6 19:20:35 10° NW 19:22:38 15° WNW 19:22:38 15° WNW visible
02 Jun 8.5 16:31:11 10° N 16:40:03 39° NE 16:40:03 39° NE visible
02 Jun 9.2 18:43:25 10° NW 18:47:48 25° WNW 18:47:48 25° WNW visible
03 Jun 8.8 15:56:00 10° N 16:04:53 28° ENE 16:05:14 28° ENE visible
03 Jun 8.7 18:06:47 10° NW 18:12:59 37° NW 18:12:59 37° NW visible
04 Jun 9.2 15:21:22 10° NNE 15:28:28 19° NE 15:30:27 18° ENE visible
04 Jun 8.3 17:30:28 10° NNW 17:38:12 53° NW 17:38:12 53° NW visible
05 Jun 9.5 14:48:07 10° NNE 14:51:48 12° NE 14:55:29 10° ENE visible
05 Jun 8.0 16:54:27 10° NNW 17:03:27 65° N 17:03:27 65° N visible
06 Jun 8.0 16:18:40 10° NNW 16:28:43 58° NE 16:28:43 58° NE visible
06 Jun 9.4 18:32:52 10° WNW 18:36:29 19° WNW 18:36:29 19° WNW visible
07 Jun 8.3 15:43:09 10° N 15:53:14 42° ENE 15:54:02 41° ENE visible
07 Jun 9.0 17:55:36 10° NW 18:01:47 30° WNW 18:01:47 30° WNW visible
08 Jun 8.7 15:07:55 10° N 15:16:59 29° ENE 15:19:22 27° E visible
08 Jun 8.4 17:18:53 10° NW 17:27:08 47° WNW 17:27:08 47° WNW visible
